Location: Ústí nad Labem
(50.6611°N, 14.0531°E)
Time: 18:18:24
(UTC+02:00)

S-56A Canister/Altair - Visible Passes

Search period start: 30 April 2025 00:00
Search period end: 10 May 2025 00:00
Orbit: 633 x 2485 km, 38.9° (Epoch: 28 April)

Date Brightness Start Highest point End Pass type
(mag) Time Alt. Az. Time Alt. Az. Time Alt. Az.
30 Apr 8.9 21:16:36 10° SW 21:20:49 24° SSE 21:26:13 10° ESE visible
30 Apr 9.0 23:18:15 10° WSW 23:23:39 31° S 23:23:40 31° S visible
01 May 8.9 22:44:07 10° WSW 22:49:07 30° S 22:50:41 27° SSE visible
02 May 10.1 00:46:58 10° WSW 00:47:56 14° WSW 00:47:56 14° WSW visible
02 May 8.9 22:10:01 10° SW 22:14:38 28° S 22:17:41 20° SE visible
03 May 9.7 00:12:40 10° WSW 00:14:56 18° SW 00:14:56 18° SW visible
03 May 8.8 21:35:56 10° SW 21:40:12 26° S 21:44:40 13° SE visible
03 May 9.4 23:38:25 10° WSW 23:41:56 22° SSW 23:41:56 22° SSW visible
04 May 8.8 21:01:51 10° SW 21:05:48 24° S 21:10:44 10° ESE visible
04 May 9.2 23:04:11 10° WSW 23:08:39 23° S 23:08:54 23° S visible
05 May 9.1 22:29:58 10° WSW 22:34:10 23° S 22:35:54 20° SSE visible
06 May 9.0 21:55:47 10° WSW 21:59:42 22° S 22:02:54 15° SSE visible
06 May 10.0 23:59:54 10° SW 00:00:09 10° SW 00:00:09 10° SW visible
07 May 9.0 21:21:36 10° SW 21:25:18 22° S 21:29:46 10° SE visible
07 May 9.8 23:25:25 10° SW 23:27:10 13° SSW 23:27:10 13° SSW visible
08 May 9.6 22:50:59 10° SW 22:53:39 14° SSW 22:54:11 13° SSW visible
09 May 9.5 22:16:35 10° SW 22:19:11 14° SSW 22:21:14 12° S visible
